Tracking 29495 objects as of 7-Sep-2024
HD Live streaming from Space Station
objects crossing your sky now

STARLINK-2513

Track STARLINK-2513 now!
10-day predictions
STARLINK-2513 is classified as:


NORAD ID: 48317
Int'l Code: 2021-036AT
Perigee: 553.5 km
Apogee: 555.4 km
Inclination: 53.1 °
Period: 95.6 minutes
Semi major axis: 6925 km
RCS: Unknown
Launch date: April 29, 2021
Source: United States (US)
Launch site: AIR FORCE EASTERN TEST RANGE (AFETR)
Your satellite tracking list
Your tracking list is empty




NASA's NSSDC Master Catalog

Two Line Element Set (TLE):
1 48317U 21036AT  24251.17775451 -.00009213  00000-0 -60082-3 0  9992
2 48317  53.0551  33.9838 0001345  96.6850 263.4292 15.06373850186141
Source of the keplerian elements: AFSPC